This is the latest recevied weather packets stored in our database for station/object K3PPP. If no packets are shown the sender has not sent any weather packets the latest 10 day(s).
| Time | Temp. | Humidity | Pressure | Rain* | Wind** | Luminosity | Snow |
|---|---|---|---|---|---|---|---|
| 1778182555 | 12.78° C | 48% | 1010.6 hPa | 0 mm | - | 212 W/m² | - |
| 1778182252 | 11.67° C | 49% | 1010.8 hPa | 0 mm | - | 831 W/m² | - |
| 1778181948 | 12.78° C | 49% | 1010.7 hPa | 0 mm | - | 248 W/m² | - |
| 1778181645 | 11.67° C | 50% | 1010.4 hPa | 0 mm | - | 440 W/m² | - |
| 1778181341 | 11.67° C | 51% | 1010.6 hPa | 0 mm | - | 236 W/m² | - |
| 1778181038 | 11.67° C | 53% | 1010.6 hPa | 0 mm | - | 192 W/m² | - |
| 1778180735 | 11.67° C | 53% | 1010.6 hPa | 0 mm | - | 206 W/m² | - |
| 1778180434 | 11.11° C | 52% | 1010.7 hPa | 0 mm | - | 241 W/m² | - |
| 1778180132 | 12.22° C | 52% | 1010.6 hPa | 0 mm | - | 145 W/m² | - |
| 1778179828 | 11.67° C | 52% | 1010.7 hPa | 0 mm | - | 165 W/m² | - |
| 1778179527 | 12.22° C | 51% | 1010.6 hPa | 0 mm | - | 183 W/m² | - |
| 1778179224 | 12.78° C | 48% | 1010.9 hPa | 0 mm | - | 252 W/m² | - |
| 1778178920 | 13.33° C | 46% | 1011 hPa | 0 mm | - | 508 W/m² | - |
| 1778178617 | 13.33° C | 47% | 1010.8 hPa | 0 mm | - | 187 W/m² | - |
| 1778178313 | 13.33° C | 50% | 1010.8 hPa | 0 mm | - | 866 W/m² | - |
| 1778178009 | 12.78° C | 49% | 1010.7 hPa | 0 mm | - | 904 W/m² | - |
| 1778177706 | 12.78° C | 48% | 1010.8 hPa | 0 mm | - | 877 W/m² | - |
| 1778177403 | 12.22° C | 50% | 1010.9 hPa | 0 mm | - | 856 W/m² | - |
| 1778177099 | 12.22° C | 53% | 1010.8 hPa | 0 mm | - | 878 W/m² | - |
| 1778176795 | 12.22° C | 49% | 1010.6 hPa | 0 mm | - | 859 W/m² | - |
| 1778176492 | 11.67° C | 53% | 1010.7 hPa | 0 mm | - | 212 W/m² | - |
| 1778176190 | 11.67° C | 53% | 1010.7 hPa | 0 mm | - | 1035 W/m² | - |
| 1778175887 | 12.78° C | 51% | 1010.9 hPa | 0 mm | - | 925 W/m² | - |
| 1778175584 | 12.78° C | 50% | 1011 hPa | 0 mm | - | 261 W/m² | - |
| 1778175281 | 12.22° C | 52% | 1011.1 hPa | 0 mm | - | 937 W/m² | - |
* Rain latest hour (hover to see other rain measurements)
** Current wind speed in m/s (hover to see current wind gust speed)